RH
67 70 73 74 73 71 66 63 61 59 55 45 43 37 33 39 49 62 78 84 93 98
69 70 75 79 78 76 71 63 62 65 61 54 49 45 40 39 50 63 69 75 79 98
65 66 69 77 84 85 79 74 73 74 74 65 59 57 55 50 52 68 73 78 88 99
71 74 79 81 84 86 88 81 80 86 85 77 65 70 68 69 68 73 82 83 87 96
83 85 89 92 91 87 90 90 93 89 89 77 71 68 69 85 89 81 83 91 88 84
87 90 92 94 95 93 93 92 92 90 88 87 88 80 85 95 89 97 91 93 97 93
51 62 76 89 97 96 95 93 92 92 91 88 86 83 79 81 87 93 94 92 93 86
27 25 31 42 63 77 90 95 94 88 86 88 88 85 83 76 78 85 78 81 82 76
20 18 16 29 31 46 46 49 47 70 67 54 60 63 77 72 70 67 60 56 56 57
22 20 18 18 24 26 24 35 37 35 43 40 38 48 53 49 59 60 50 50 50 42
25 21 19 18 15 11 13 12 13 16 18 25 39 39 39 36 31 34 39 39 40 40
26 23 21 19 18 16 13 12 12 11 11 12 14 15 16 20 25 30 33 34 35 34
32 25 21 19 18 18 18 18 17 17 17 17 17 20 24 25 26 27 28 28 30 32
37 31 25 20 18 19 19 21 23 23 23 23 24 26 31 32 30 31 30 30 29 28